FW6766 Weather Reports


Display with metric or nautical units.
time (UTC)temp
F
wind
direction
speed
MPH
gust
MPH
rain 1hr
in
rain 24hr
in
rain mn
in
humidity
%
barometer
mb
20260505054018 56 0.0 0.0 0.00 0.00 0.00 71 1016.8
20260505053016 56 0.0 0.0 0.00 0.00 0.00 70 1016.7
20260505052017 56 0.0 0.0 0.00 0.00 0.00 69 1016.7
20260505051037 56 0.0 0.0 0.00 0.00 0.00 68 1016.6
20260505041017 57 0.0 0.0 0.00 0.00 0.00 65 1016.6
20260505040036 58 0.0 0.0 0.00 0.00 0.00 65 1016.6
20260505035016 58 0.0 0.0 0.00 0.00 0.00 66 1016.6
20260505034036 58 0.0 0.0 0.00 0.00 0.00 65 1016.6
20260505033016 59 0.0 0.0 0.00 0.00 0.00 63 1016.4
20260505032017 59 0.0 0.0 0.00 0.00 0.00 64 1016.5
20260505031036 60 0.0 0.0 0.00 0.00 0.00 62 1016.5
20260505030016 60 0.0 0.0 0.00 0.00 0.00 61 1016.4
20260505025036 60 0.0 0.0 0.00 0.00 0.00 60 1016.5
20260505024016 61 0.0 0.0 0.00 0.00 0.00 59 1016.5
20260505023016 61 0.0 0.0 0.00 0.00 0.00 58 1016.4
20260505022017 61 0.0 0.0 0.00 0.00 0.00 58 1016.2
20260505021016 61 0.0 0.0 0.00 0.00 0.00 58 1016.2
20260505020016 62 0.0 0.0 0.00 0.00 0.00 56 1015.9
20260505015016 62 0.0 0.0 0.00 0.00 0.00 56 1015.9
20260505014016 63 0.0 0.0 0.00 0.00 0.00 53 1015.9
20260505013016 64 0.0 0.0 0.00 0.00 0.00 52 1015.6
20260505012016 65 0.0 0.0 0.00 0.00 0.00 51 1015.6
20260505011016 66 0.0 0.0 0.00 0.00 0.00 50 1015.6
20260505010016 67 0.0 0.0 0.00 0.00 0.00 46 1015.5
20260505005016 68 0.0 0.0 0.00 0.00 0.00 45 1015.3
20260505004016 69 0.0 1.0 0.00 0.00 0.00 43 1015.4
20260505003016 70 0.0 1.0 0.00 0.00 0.00 43 1015.3
20260505002016 70 0 1.0 2.0 0.00 0.00 0.00 42 1015.3
20260505001017 71 0.0 0.0 0.00 0.00 0.00 42 1015.1
20260505000016 72 0.0 0.0 0.00 0.00 0.00 41 1015.1
20260504235016 73 0 1.0 3.0 0.00 0.00 0.00 40 1015.1
20260504234016 73 0 2.0 3.0 0.00 0.00 0.00 37 1015.1
20260504233016 74 203 2.0 5.0 0.00 0.00 0.00 37 1015.2
20260504232016 74 203 1.0 3.0 0.00 0.00 0.00 37 1015.1
20260504231016 75 203 1.0 4.0 0.00 0.00 0.00 34 1015.2
20260504230016 76 203 2.0 8.0 0.00 0.00 0.00 33 1015.1
20260504225015 76 0 1.0 3.0 0.00 0.00 0.00 34 1015.1
20260504224015 77 203 2.0 6.0 0.00 0.00 0.00 31 1015.3
20260504223015 77 0 2.0 3.0 0.00 0.00 0.00 31 1015.3
20260504222015 77 180 2.0 5.0 0.00 0.00 0.00 32 1015.3
20260504221015 78 158 2.0 6.0 0.00 0.00 0.00 33 1015.4
20260504220036 79 180 2.0 6.0 0.00 0.00 0.00 32 1015.3
20260504215016 79 180 2.0 6.0 0.00 0.00 0.00 33 1015.3
20260504214015 79 203 2.0 4.0 0.00 0.00 0.00 31 1015.3
20260504213015 80 225 1.0 5.0 0.00 0.00 0.00 33 1015.3
20260504212015 79 180 3.0 9.0 0.00 0.00 0.00 34 1015.4
20260504211015 78 180 2.0 5.0 0.00 0.00 0.00 34 1015.4
20260504210015 78 203 3.0 9.0 0.00 0.00 0.00 34 1015.6
20260504205015 78 180 1.0 4.0 0.00 0.00 0.00 33 1015.6
20260504204018 78 0 1.0 6.0 0.00 0.00 0.00 34 1015.6
20260504203017 79 0 2.0 6.0 0.00 0.00 0.00 35 1015.7
20260504202017 79 180 3.0 8.0 0.00 0.00 0.00 33 1015.9
20260504201017 80 180 2.0 4.0 0.00 0.00 0.00 32 1015.9
20260504200017 80 203 2.0 4.0 0.00 0.00 0.00 33 1016.1
20260504195017 80 203 1.0 4.0 0.00 0.00 0.00 32 1016.3
20260504194017 80 180 3.0 9.0 0.00 0.00 0.00 31 1016.5
20260504193018 80 0.0 0.0 0.00 0.00 0.00 33 1016.6
20260504192017 79 45 1.0 2.0 0.00 0.00 0.00 37 1016.7
20260504191017 79 248 1.0 4.0 0.00 0.00 0.00 36 1016.9
20260504190017 78 0 1.0 3.0 0.00 0.00 0.00 34 1017.1
20260504185037 77 0 1.0 5.0 0.00 0.00 0.00 36 1017.1
20260504184017 78 0 1.0 4.0 0.00 0.00 0.00 35 1017.2
20260504183017 78 0 1.0 3.0 0.00 0.00 0.00 35 1017.3
20260504182018 78 0 1.0 3.0 0.00 0.00 0.00 35 1017.5
20260504181018 77 0 2.0 9.0 0.00 0.00 0.00 36 1017.7
20260504180017 77 0 2.0 5.0 0.00 0.00 0.00 37 1017.7
20260504175017 76 0 2.0 5.0 0.00 0.00 0.00 37 1017.9
20260504174016 77 0 1.0 4.0 0.00 0.00 0.00 37 1018.1
20260504173017 75 0 1.0 3.0 0.00 0.00 0.00 40 1018.0
20260504172017 75 0 1.0 5.0 0.00 0.00 0.00 38 1018.3
20260504171017 75 0 2.0 5.0 0.00 0.00 0.00 40 1018.5
20260504151016 66 0 1.0 3.0 0.00 0.00 0.00 48 1019.6
20260504141016 60 0 1.0 3.0 0.00 0.00 0.00 64 1019.5
20260504081018 45 0.0 0.0 0.00 0.00 0.00 84 1018.8